Flag for U.S.A. Weather past 2 weeks in Jacksonville, Florida, U.S.A.

Now
92 °F

More clouds than sun.


Feels Like: 101 °F
Forecast: 76 / 87 °F
Wind: 3 mph from North

Location: Jacksonville Naval Air Station

Current Time: Sep 1, 2015 at 4:38:30 PM

Latest Report: Sep 1, 2015 at 3:53 PM


Visibility: 10 mi

Pressure: 30.04 "Hg

Humidity: 54%

Dew point: 73 °F

Location of JacksonvilleLocation

Historic Weather in Jacksonville — Graph

°F

Jacksonville temperature yesterday

Maximum temperature yesterday: 90 °F (at 3:53 PM)
Minimum temperature yesterday: 79 °F (at 4:53 AM)
Average temperature yesterday: 83 °F

Past Weeks' High & Low Weather Summary

 TemperatureHumidityPressure
High98 °F (Aug 25, 1:53 PM)94% (Aug 23, 8:53 PM)30.11 "Hg (Aug 23, 8:53 PM)
Low76 °F (Aug 23, 8:53 PM)38% (Aug 25, 3:53 PM)29.83 "Hg (Aug 25, 5:53 PM)
Average84 °F71%29.99 "Hg
* Reported Aug 17 2:53 PM — Sep 1 2:53 PM, Jacksonville, Weather by CustomWeather, © 2015

Note: Actual official high and low records may vary slightly from our data, if they occured in-between our weather recording intervals... More about our weather records

Advertising

Jacksonville weather history for previous 24 hours

 ConditionsComfort  
Time TempWeatherWind HumidityBarometerVisibility
2:53 PM
Tue, Sep 1
92 °FOvercast.7 mph54%30.05 "Hg10 mi
1:53 PM90 °FPartly sunny.7 mph57%30.06 "Hg10 mi
12:53 PM90 °FPartly sunny.12 mph56%30.07 "Hg10 mi
11:53 AM89 °FBroken clouds.8 mph59%30.08 "Hg10 mi
10:53 AM86 °FBroken clouds.6 mph67%30.08 "Hg10 mi
9:53 AM85 °FPartly sunny.7 mph70%30.08 "Hg10 mi
8:53 AM84 °FPartly sunny.7 mph77%30.07 "Hg10 mi
7:53 AM83 °FPassing clouds.6 mph77%30.07 "Hg10 mi
6:53 AM82 °FPassing clouds.3 mph82%30.04 "Hg10 mi
5:53 AM82 °FPassing clouds.3 mph82%30.02 "Hg10 mi
4:53 AM82 °FPassing clouds.7 mph79%30.01 "Hg10 mi
3:53 AM82 °FPassing clouds.7 mph82%30.02 "Hg10 mi
2:53 AM83 °FPassing clouds.3 mph82%30.03 "Hg10 mi
1:53 AM83 °FPassing clouds.5 mph82%30.04 "Hg10 mi
12:53 AM83 °FClear.5 mph82%30.05 "Hg10 mi
11:53 PM
Mon, Aug 31
84 °FOvercast.3 mph80%30.06 "Hg10 mi
10:53 PM84 °FPartly cloudy.No wind83%30.07 "Hg10 mi
9:53 PM84 °FMostly cloudy.6 mph80%30.06 "Hg10 mi
8:53 PM84 °FLight rain. Mostly cloudy.5 mph80%30.05 "Hg10 mi
7:53 PM84 °FLight rain. Cloudy.7 mph83%30.02 "Hg10 mi
6:53 PM85 °FThunderstorms. Cloudy.6 mph77%30.03 "Hg9 mi
5:53 PM86 °FMore clouds than sun.12 mph72%30.02 "Hg10 mi
4:53 PM85 °FMore clouds than sun.9 mph72%30.02 "Hg10 mi
Weather by CustomWeather, © 2015

See weather overviewHow to use our weather pages